[[{"header":{"parameterUnit":"m.s-1","parameterCategory":1,"la1":30.2991,"la2":30.254,"lo1":-89.0895,"lo2":-89.0444,"dy":0.0017,"dx":0.0017,"nx":28,"ny":28,"refTime":"2025-04-13T21:00:00:Z","depth":0,"parameterNumber":2,"parameterNumberName":"U-component_of_WINDS"},"data":[0,0,0,0,0,0,0,0,0,0,0,0,0,0,0,0,0,0,0,0,0,0,0,0,0,0,0,0,0,0,0,0,0,0,0,0,0,0,0,0,0,0,0,0,0,0,0,0,0,0,0,0,0,0,0,0,0,0,0.9426,0.9426,0,0.9462,0.9462,0.9463,0.9452,0.9451,0.945,0.9449,0.9489,0.9491,0.9492,0,0,0,0,0,0,0,0,0,0,0,0,0,0.935,0.9351,0.9426,0.9426,0.9426,0.9462,0.9462,0.9463,0.9452,0.9451,0.945,0.9449,0.9488,0.949,0.9492,0,0,0,0,0,0,0,0,0,0,0,0,0,0.9384,0.9352,0.9425,0.9425,0.9426,0.9462,0.9462,0.9463,0.9452,0.9451,0.945,0.9449,0.9488,0.949,0.9493,0.9532,0,0,0.9501,0.9502,0,0,0,0,0,0,0,0,0.9382,0.9387,0.9425,0.9425,0.9426,0.9451,0.945,0.9486,0.9452,0.9442,0.9449,0.9448,0.9477,0.9481,0.949,0.9534,0.9536,0.9501,0.9503,0.9504,0.9505,0,0,0,0,0,0,0,0.938,0.9385,0.944,0.9425,0.9426,0.9424,0.9428,0.9457,0.9466,0.9443,0.9442,0.9447,0.9477,0.9488,0.9491,0.9536,0.9501,0.9503,0.9505,0.9506,0.9616,0.9618,0,0,0,0,0,0,0.9377,0.9383,0.9439,0.9441,0.9401,0.9427,0.9431,0.9444,0.9465,0.9468,0.9447,0.9446,0.9484,0.9488,0.9492,0.9541,0.9504,0.9506,0.9508,0.9615,0.9617,0.9618,0,0,0,0,0,0,0.9375,0.9382,0.9437,0.9412,0.9419,0.9429,0.9444,0.9445,0.9456,0.9469,0.9471,0.9456,0.9483,0.9489,0.9523,0.9542,0.9507,0.951,0.9614,0.9616,0.9618,0.9638,0,0,0,0,0,0,0.9373,0.9381,0.9395,0.9412,0.942,0.9466,0.9446,0.9447,0.946,0.9458,0.9477,0.948,0.9483,0.9519,0.9525,0.9545,0.9512,0.9612,0.9614,0.9617,0.9636,0.9641,0.9645,0,0,0,0,0,0.937,0.94,0.9396,0.9403,0.9438,0.9467,0.9472,0.9474,0.9462,0.9477,0.9486,0.9479,0.9539,0.9522,0.953,0.9551,0.9611,0.9614,0.9617,0.9634,0.964,0.9645,0,0,0,0,0,0,0.9385,0.9402,0.9398,0.9434,0.9449,0.9465,0.9484,0.948,0.95,0.9497,0.95,0.9504,0.954,0.9549,0.953,0.9591,0.9573,0.9578,0.9584,0.959,0.9594,0.9592,0.9514,0,0,0,0,0,0.9393,0.9414,0.9428,0.9458,0.9466,0.9474,0.9487,0.9487,0.9503,0.951,0.9521,0.9538,0.9561,0.9576,0.9597,0.9637,0.9642,0.9656,0.966,0.9664,0.9668,0.9692,0.9698,0.9628,0.9628,0.9628,0,0,0.9408,0.942,0.9433,0.9462,0.9473,0.9497,0.9479,0.9504,0.9522,0.9514,0.9547,0.9556,0.9575,0.9612,0.963,0.9621,0.9689,0.9668,0.9671,0.9673,0.9696,0.9702,0.9708,0.963,0.963,0.963,0,0,0.9449,0.9459,0.9486,0.9499,0.9517,0.9522,0.9529,0.9546,0.9552,0.9585,0.958,0.9601,0.964,0.9654,0.9667,0.9714,0.971,0.9721,0.9745,0.9768,0.9774,0.9779,0.9797,0.9804,0.9725,0.9726,0.9726,0,0.9466,0.95,0.9501,0.9527,0.954,0.9534,0.9562,0.9574,0.9599,0.9609,0.9599,0.9649,0.9661,0.9703,0.9714,0.9724,0.9733,0.9719,0.9773,0.9778,0.9782,0.98,0.9807,0.9727,0.9727,0.9727,0.9726,0,0.9521,0.9545,0.9565,0.9589,0.9604,0.9631,0.9638,0.9653,0.9653,0.966,0.9695,0.9709,0.9734,0.9744,0.9744,0.9787,0.9781,0.9772,0.9754,0.9791,0.9807,0.9814,0.9729,0.9728,0.9728,0.9728,0,0,0.9571,0.9596,0.9604,0.9615,0.9636,0.9655,0.9682,0.9706,0.9721,0.9738,0.9762,0.9796,0.9788,0.9802,0.9804,0.9824,0.9863,0.9813,0.9813,0.9822,0.9913,0.992,0.9927,0.986,0.9861,0.9862,0.9911,0,0.9615,0.9662,0.9665,0.9708,0.9731,0.9726,0.975,0.9766,0.9774,0.9795,0.9804,0.9828,0.9815,0.9824,0.9844,0.9854,0.9881,0.985,0.9884,0.9885,0.988,0.9936,0.9943,0.9989,0.9918,0.9919,0.992,0,0.9671,0.969,0.9736,0.9755,0.9764,0.9786,0.9809,0.9829,0.9848,0.9852,0.9869,0.9868,0.9898,0.9879,0.9921,0.99,0.9913,0.9921,0.9923,0.9926,0.9905,0.9942,1.0004,1.0011,0.993,0.9929,0.9928,0,0.9705,0.9742,0.9775,0.9785,0.9807,0.9822,0.9833,0.985,0.9865,0.9886,0.9896,0.992,0.9934,0.9953,0.9959,0.9944,1.0002,0.9983,1.0007,1.0007,1.002,1.0019,1.0085,1.0027,1.0027,1.0027,1.0027,0,0.9753,0.9781,0.979,0.9811,0.9843,0.9847,0.9879,0.9888,0.9904,0.9927,0.9924,0.9946,0.9953,0.9976,0.9981,1.0016,1.0022,1.0027,1.0029,1.0028,1.0028,1.0038,1.0035,1.0029,1.0028,1.0028,1.0028,0,0.9796,0.9803,0.9838,0.9857,0.9862,0.9885,0.9902,0.9922,0.9929,0.9959,0.9966,0.9978,1.0005,1.0014,1.0047,1.005,1.0092,1.009,1.0085,1.0086,1.011,1.0108,1.0186,1.0197,1.0131,1.0131,1.0132,0,0.9827,0.9848,0.9869,0.9884,0.9895,0.9919,0.9935,0.9939,0.9956,0.998,0.9997,1.0025,1.0047,1.0091,1.0104,1.013,1.0129,1.0154,1.0133,1.0132,1.0131,1.013,1.0133,1.0158,1.0159,1.016,1.016,0,0.9881,0.9883,0.9905,0.9929,0.9948,0.9967,0.9985,0.9998,1.0005,1.0024,1.0052,1.0069,1.0104,1.0131,1.0158,1.017,1.0167,1.0167,1.0174,1.0174,1.0171,1.0175,1.0097,1.0165,1.0165,1.0164,1.0164,1.0164,0.9919,0.9939,0.9957,0.9982,0.9997,1.0014,1.0035,1.0045,1.0068,1.0096,1.0098,1.0129,1.0148,1.0184,1.0197,1.0222,1.0215,1.0225,1.0228,1.023,1.0233,1.0167,1.0227,1.0227,1.0227,1.0227,1.0226,0,0.9974,0.9986,1.0009,1.0035,1.0055,1.005,1.0071,1.0088,1.0115,1.0133,1.0155,1.0189,1.0216,1.0231,1.0258,1.0276,1.0275,1.0283,1.0282,1.0285,1.0237,1.0229,1.0283,1.0283,1.0283,1.0283,1.0283,1.0283,1.0005,1.0039,1.0044,1.0086,1.0098,1.0127,1.014,1.0157,1.0171,1.0209,1.0231,1.024,1.0258,1.0287,1.0312,1.0316,1.0327,1.0336,1.0339,1.0294,1.0288,1.0283,1.0275,1.0338,1.0338,1.0385,1.0385,1.0385]},{"header":{"parameterUnit":"m.s-1","parameterCategory":1,"la1":30.2991,"la2":30.254,"lo1":-89.0895,"lo2":-89.0444,"dy":0.0017,"dx":0.0017,"nx":28,"ny":28,"refTime":"2025-04-13T21:00:00:Z","depth":0,"parameterNumber":3,"parameterNumberName":"V-component_of_WINDS"},"data":[0,0,0,0,0,0,0,0,0,0,0,0,0,0,0,0,0,0,0,0,0,0,0,0,0,0,0,0,0,0,0,0,0,0,0,0,0,0,0,0,0,0,0,0,0,0,0,0,0,0,0,0,0,0,0,0,0,0,-3.5714,-3.5714,0,-3.5721,-3.5721,-3.5722,-3.5762,-3.5763,-3.5764,-3.5765,-3.5767,-3.5766,-3.5766,0,0,0,0,0,0,0,0,0,0,0,0,0,-3.5731,-3.573,-3.5714,-3.5714,-3.5714,-3.5721,-3.5721,-3.5722,-3.5762,-3.5763,-3.5764,-3.5765,-3.5767,-3.5766,-3.5765,0,0,0,0,0,0,0,0,0,0,0,0,0,-3.5729,-3.573,-3.5714,-3.5735,-3.5737,-3.5721,-3.5721,-3.5722,-3.5761,-3.5763,-3.5764,-3.5766,-3.5768,-3.5767,-3.5765,-3.5728,0,0,-3.5761,-3.5761,0,0,0,0,0,0,0,0,-3.5729,-3.5728,-3.5732,-3.5733,-3.5736,-3.5742,-3.5729,-3.5724,-3.5761,-3.5752,-3.5765,-3.5766,-3.5757,-3.5757,-3.5755,-3.5728,-3.5728,-3.5761,-3.5761,-3.576,-3.576,0,0,0,0,0,0,0,-3.5729,-3.5728,-3.5717,-3.5732,-3.5734,-3.5743,-3.5745,-3.5728,-3.5746,-3.5753,-3.5756,-3.5756,-3.5759,-3.5756,-3.5755,-3.5728,-3.5761,-3.576,-3.5759,-3.5759,-3.5675,-3.5674,0,0,0,0,0,0,-3.5727,-3.5728,-3.5716,-3.5717,-3.5736,-3.5742,-3.5743,-3.5739,-3.5746,-3.5749,-3.5755,-3.5758,-3.5758,-3.5757,-3.5756,-3.5715,-3.576,-3.5759,-3.5758,-3.5677,-3.5675,-3.5673,0,0,0,0,0,0,-3.5727,-3.5725,-3.5716,-3.5723,-3.5723,-3.574,-3.5734,-3.5738,-3.5736,-3.5748,-3.5751,-3.575,-3.5759,-3.5757,-3.5736,-3.5716,-3.5758,-3.5757,-3.5679,-3.5676,-3.5674,-3.5633,0,0,0,0,0,0,-3.5727,-3.5725,-3.5712,-3.5723,-3.5722,-3.5697,-3.5733,-3.5737,-3.5734,-3.5738,-3.5744,-3.5746,-3.576,-3.5738,-3.5735,-3.5715,-3.5756,-3.568,-3.5678,-3.5675,-3.5636,-3.5629,-3.5624,0,0,0,0,0,-3.5728,-3.5698,-3.5711,-3.5709,-3.5706,-3.5695,-3.5695,-3.5713,-3.5732,-3.5719,-3.5728,-3.5746,-3.5719,-3.5735,-3.5732,-3.5712,-3.5682,-3.5678,-3.5675,-3.5639,-3.5631,-3.5624,0,0,0,0,0,0,-3.5681,-3.5699,-3.5714,-3.5687,-3.569,-3.5702,-3.5686,-3.5703,-3.5699,-3.5703,-3.5724,-3.5725,-3.5701,-3.5704,-3.5722,-3.5678,-3.5704,-3.5699,-3.5677,-3.5669,-3.5663,-3.5663,-3.5755,0,0,0,0,0,-3.5668,-3.5659,-3.5675,-3.5649,-3.565,-3.5668,-3.5664,-3.5678,-3.5681,-3.5681,-3.5688,-3.5689,-3.5682,-3.5675,-3.5668,-3.5637,-3.5639,-3.5621,-3.5615,-3.561,-3.5606,-3.5593,-3.5585,-3.5663,-3.5663,-3.5663,0,0,-3.5639,-3.5649,-3.5641,-3.564,-3.5644,-3.5634,-3.5668,-3.5655,-3.5648,-3.5679,-3.566,-3.5666,-3.5668,-3.5642,-3.5631,-3.5644,-3.5586,-3.5606,-3.5602,-3.5601,-3.5589,-3.5581,-3.5575,-3.566,-3.5661,-3.5661,0,0,-3.5584,-3.5589,-3.557,-3.5574,-3.5581,-3.5594,-3.5589,-3.56,-3.5606,-3.5588,-3.5612,-3.5603,-3.5588,-3.559,-3.5588,-3.5538,-3.5555,-3.5535,-3.5503,-3.5489,-3.5483,-3.5478,-3.5461,-3.5455,-3.5531,-3.5531,-3.5531,0,-3.5547,-3.5535,-3.5557,-3.5545,-3.5544,-3.5575,-3.5556,-3.5558,-3.5561,-3.556,-3.5575,-3.5559,-3.5563,-3.5539,-3.5528,-3.5525,-3.5521,-3.5534,-3.5482,-3.5477,-3.5473,-3.5457,-3.5451,-3.5528,-3.5529,-3.5529,-3.5529,0,-3.5491,-3.5482,-3.5466,-3.5472,-3.5469,-3.5453,-3.5473,-3.5468,-3.5483,-3.5493,-3.5476,-3.5482,-3.5479,-3.5474,-3.5486,-3.5453,-3.5461,-3.5479,-3.5505,-3.5463,-3.5449,-3.5443,-3.5525,-3.5526,-3.5526,-3.5527,0,0,-3.5403,-3.5425,-3.5419,-3.5423,-3.5435,-3.5428,-3.5413,-3.5413,-3.5409,-3.541,-3.5399,-3.5388,-3.5406,-3.5405,-3.5419,-3.5407,-3.5369,-3.5426,-3.5427,-3.5417,-3.5334,-3.5322,-3.5315,-3.5381,-3.538,-3.5379,-3.5335,0,-3.5352,-3.5331,-3.5352,-3.5327,-3.532,-3.535,-3.5339,-3.5344,-3.5354,-3.5349,-3.536,-3.5353,-3.5376,-3.5376,-3.5365,-3.5376,-3.5353,-3.5379,-3.5371,-3.5371,-3.5371,-3.5307,-3.5293,-3.5251,-3.5329,-3.5328,-3.5328,0,-3.5288,-3.5291,-3.5265,-3.5282,-3.528,-3.5269,-3.5271,-3.5266,-3.5274,-3.5282,-3.5283,-3.5301,-3.5289,-3.5315,-3.5299,-3.5316,-3.5314,-3.5319,-3.5318,-3.5318,-3.5347,-3.5307,-3.5238,-3.5232,-3.5319,-3.532,-3.532,0,-3.5229,-3.5226,-3.5211,-3.5214,-3.5232,-3.5224,-3.5231,-3.524,-3.5239,-3.5241,-3.5241,-3.524,-3.524,-3.5239,-3.5257,-3.5274,-3.5239,-3.5266,-3.5246,-3.5246,-3.5237,-3.5238,-3.5168,-3.5234,-3.5235,-3.5235,-3.5235,0,-3.5169,-3.5153,-3.5186,-3.5177,-3.516,-3.5185,-3.5167,-3.5177,-3.5186,-3.5179,-3.5204,-3.5197,-3.5221,-3.5217,-3.5231,-3.5216,-3.5215,-3.5222,-3.5226,-3.522,-3.522,-3.522,-3.5223,-3.5233,-3.5233,-3.5234,-3.5234,0,-3.51,-3.5122,-3.5108,-3.5128,-3.5133,-3.512,-3.5137,-3.5129,-3.5143,-3.5134,-3.5133,-3.5154,-3.515,-3.5169,-3.5167,-3.5177,-3.5156,-3.5164,-3.5154,-3.5157,-3.5137,-3.5139,-3.5065,-3.5058,-3.5128,-3.5127,-3.5127,0,-3.5061,-3.505,-3.507,-3.5069,-3.5076,-3.5073,-3.5074,-3.5098,-3.5098,-3.5108,-3.5099,-3.5098,-3.5099,-3.5092,-3.5106,-3.5106,-3.5115,-3.509,-3.5115,-3.5111,-3.5117,-3.5118,-3.5118,-3.5084,-3.5083,-3.5082,-3.5082,0,-3.499,-3.5003,-3.5004,-3.5009,-3.501,-3.5015,-3.5021,-3.5018,-3.5045,-3.5043,-3.5042,-3.5043,-3.5044,-3.5043,-3.5046,-3.5053,-3.5072,-3.5074,-3.507,-3.5064,-3.506,-3.5064,-3.5141,-3.5075,-3.5076,-3.5077,-3.5077,-3.5077,-3.4936,-3.4929,-3.4944,-3.4945,-3.4953,-3.4959,-3.4954,-3.4969,-3.4969,-3.4973,-3.4988,-3.4984,-3.4994,-3.5002,-3.5006,-3.5004,-3.5016,-3.5009,-3.5008,-3.5006,-3.5003,-3.506,-3.5004,-3.5004,-3.5005,-3.5005,-3.5005,0,-3.4868,-3.488,-3.4881,-3.4891,-3.4892,-3.4913,-3.4922,-3.4921,-3.4919,-3.4928,-3.493,-3.4929,-3.4929,-3.4945,-3.4947,-3.4942,-3.4951,-3.4942,-3.4943,-3.4945,-3.4991,-3.4996,-3.4935,-3.4935,-3.4935,-3.4935,-3.4935,-3.4935,-3.4833,-3.4823,-3.4838,-3.4833,-3.4844,-3.4843,-3.4847,-3.4853,-3.4861,-3.486,-3.4862,-3.4873,-3.4885,-3.4889,-3.4891,-3.4895,-3.4896,-3.4884,-3.4891,-3.4934,-3.4941,-3.4947,-3.4952,-3.4883,-3.4883,-3.4845,-3.4845,-3.4845]}]]